Weather History for Granite Falls, MN

Change the Weather History Date:

Saturday, June 29, 2013

  Actual Average (KMVE) Record (KMVE)
Temperature  
Mean Temperature 72 °F -  
Max Temperature 80 °F 80 °F 97 °F (1970)
Min Temperature 61 °F 58 °F 45 °F (1973)
Cooling Degree Days 6    
Growing Degree Days 22 (Base 50)    
Moisture  
Dew Point 54 °F    
Average Humidity 60    
Maximum Humidity 85    
Minimum Humidity 33    
Precipitation  
Precipitation 0.00 in - - ()
Sea Level Pressure  
Sea Level Pressure 29.94 in    
Wind  
Wind Speed 12 mph (NNW)    
Max Wind Speed 20 mph    
Max Gust Speed 25 mph    
Visibility 10 miles    
Events      
Averages and records for this station are not official NWS values.
T = Trace of Precipitation, MM = Missing Value Source: NWS Daily Summary

Daily Weather History Graph

Daily Weather History Graph

Search for Another Location

Airport:

Trip Planner

Search our weather history database for the weather conditions in past years. The results will help you decide how hot, cold, wet, or windy it might be!

Date:

Astronomy

Jun. 29, 2013 Rise Set
Actual Time 5:39 AM CDT 9:11 PM CDT
Civil Twilight 5:02 AM CDT 9:48 PM CDT
Nautical Twilight 4:13 AM CDT 10:37 PM CDT
Astronomical Twilight 3:09 AM CDT 11:41 PM CDT
Moon 12:23 AM CDT (6/29) 1:11 PM CDT (6/29)
Length of Visible Light 16h 46m
Length of Day
15h 32m
Waning Gibbous, 55% of the Moon is Illuminated
Jun 29
Waning Gibbous
Jun 29
Last Quarter
Jul 8
New
Jul 15
First Quarter
Jul 22
Full

Hourly Weather History & Observations

Time (CDT) Temp. Dew Point Humidity Pressure Visibility Wind Dir Wind Speed Gust Speed Precip Events Conditions
12:12 AM 67.3 °F 57.2 °F 70% 29.88 in 10.0 mi NW 8.1 mph - N/A   Clear
12:32 AM 67.8 °F 57.0 °F 68% 29.88 in 10.0 mi NW 9.2 mph - N/A   Clear
12:52 AM 68.2 °F 56.3 °F 66% 29.88 in 10.0 mi NW 9.2 mph - N/A   Clear
1:11 AM 68.2 °F 55.9 °F 65% 29.87 in 10.0 mi NW 10.4 mph 16.1 mph N/A   Clear
1:32 AM 66.4 °F 56.3 °F 70% 29.87 in 10.0 mi WNW 10.4 mph - N/A   Clear
1:51 AM 66.4 °F 56.7 °F 71% 29.87 in 10.0 mi WNW 10.4 mph - N/A   Clear
2:12 AM 66.4 °F 57.2 °F 72% 29.86 in 10.0 mi NW 10.4 mph - N/A   Clear
2:31 AM 65.5 °F 56.5 °F 73% 29.87 in 10.0 mi NW 9.2 mph - N/A   Clear
2:51 AM 64.9 °F 56.7 °F 74% 29.87 in 10.0 mi WNW 9.2 mph - N/A   Clear
3:12 AM 64.6 °F 56.7 °F 75% 29.87 in 10.0 mi WNW 9.2 mph - N/A   Clear
3:32 AM 64.4 °F 57.0 °F 77% 29.87 in 10.0 mi WNW 10.4 mph - N/A   Clear
3:52 AM 64.0 °F 56.8 °F 77% 29.87 in 10.0 mi WNW 10.4 mph - N/A   Clear
4:11 AM 63.7 °F 56.8 °F 78% 29.87 in 10.0 mi NW 11.5 mph - N/A   Clear
4:32 AM 63.7 °F 57.2 °F 79% 29.88 in 10.0 mi NW 12.7 mph - N/A   Clear
4:52 AM 63.5 °F 57.4 °F 80% 29.88 in 10.0 mi WNW 11.5 mph - N/A   Clear
5:11 AM 63.1 °F 57.4 °F 81% 29.89 in 10.0 mi NW 10.4 mph - N/A   Clear
5:32 AM 63.0 °F 57.6 °F 82% 29.89 in 10.0 mi WNW 15.0 mph - N/A   Clear
5:51 AM 63.0 °F 57.7 °F 83% 29.89 in 10.0 mi NW 13.8 mph - N/A   Clear
6:11 AM 63.0 °F 58.1 °F 84% 29.90 in 10.0 mi NW 13.8 mph - N/A   Clear
6:32 AM 63.0 °F 58.3 °F 85% 29.90 in 10.0 mi NW 13.8 mph 19.6 mph N/A   Scattered Clouds
6:52 AM 63.0 °F 58.3 °F 85% 29.91 in 10.0 mi NW 15.0 mph 19.6 mph N/A   Clear
7:11 AM 63.1 °F 58.3 °F 84% 29.91 in 10.0 mi NW 16.1 mph 20.7 mph N/A   Mostly Cloudy
7:31 AM 63.5 °F 58.3 °F 83% 29.92 in 10.0 mi NW 9.2 mph 19.6 mph N/A   Overcast
7:52 AM 64.0 °F 58.3 °F 82% 29.93 in 10.0 mi NW 15.0 mph 21.9 mph N/A   Mostly Cloudy
8:11 AM 64.8 °F 58.6 °F 81% 29.93 in 10.0 mi NW 18.4 mph 24.2 mph N/A   Overcast
8:31 AM 65.3 °F 58.6 °F 79% 29.93 in 10.0 mi NNW 19.6 mph - N/A   Overcast
8:52 AM 66.6 °F 58.8 °F 76% 29.94 in 10.0 mi NNW 16.1 mph 24.2 mph N/A   Overcast
9:12 AM 67.1 °F 58.1 °F 73% 29.94 in 10.0 mi NNW 19.6 mph 25.3 mph N/A   Overcast
9:31 AM 66.6 °F 57.6 °F 73% 29.95 in 10.0 mi North 16.1 mph 23.0 mph N/A   Overcast
9:51 AM 68.7 °F 57.6 °F 67% 29.95 in 10.0 mi NNW 19.6 mph 24.2 mph N/A   Mostly Cloudy
10:12 AM 70.0 °F 57.4 °F 64% 29.95 in 10.0 mi North 12.7 mph 21.9 mph N/A   Scattered Clouds
10:32 AM 70.9 °F 57.6 °F 63% 29.96 in 10.0 mi NNW 16.1 mph 20.7 mph N/A   Overcast
10:51 AM 70.9 °F 58.3 °F 64% 29.96 in 10.0 mi NNW 18.4 mph - N/A   Overcast
11:12 AM 71.8 °F 57.9 °F 62% 29.96 in 10.0 mi NNW 15.0 mph 21.9 mph N/A   Mostly Cloudy
11:32 AM 72.9 °F 57.7 °F 59% 29.96 in 10.0 mi NNW 15.0 mph 23.0 mph N/A   Mostly Cloudy
11:52 AM 73.6 °F 57.4 °F 57% 29.96 in 10.0 mi North 17.3 mph 21.9 mph N/A   Mostly Cloudy
12:11 PM 73.4 °F 55.4 °F 53% 29.96 in 10.0 mi NNW 12.7 mph 19.6 mph N/A   Scattered Clouds
12:32 PM 74.8 °F 56.5 °F 53% 29.96 in 10.0 mi NW 16.1 mph 20.7 mph N/A   Scattered Clouds
12:51 PM 76.8 °F 56.3 °F 49% 29.96 in 10.0 mi NNW 15.0 mph - N/A   Scattered Clouds
1:12 PM 75.2 °F 53.6 °F 47% 29.96 in 10.0 mi North 15.0 mph 21.9 mph N/A   Mostly Cloudy
1:32 PM 77.0 °F 53.8 °F 44% 29.95 in 10.0 mi North 15.0 mph - N/A   Scattered Clouds
1:52 PM 77.0 °F 54.0 °F 45% 29.95 in 10.0 mi NNW 16.1 mph 20.7 mph N/A   Scattered Clouds
2:11 PM 77.7 °F 54.3 °F 44% 29.95 in 10.0 mi NNW 12.7 mph 21.9 mph N/A   Scattered Clouds
2:32 PM 77.4 °F 52.7 °F 42% 29.94 in 10.0 mi NNW 12.7 mph 21.9 mph N/A   Scattered Clouds
2:52 PM 78.8 °F 53.6 °F 42% 29.95 in 10.0 mi NNW 16.1 mph 24.2 mph N/A   Scattered Clouds
3:11 PM 78.4 °F 53.8 °F 42% 29.95 in 10.0 mi NNW 16.1 mph - N/A   Scattered Clouds
3:32 PM 78.8 °F 50.5 °F 37% 29.95 in 10.0 mi North 13.8 mph 20.7 mph N/A   Scattered Clouds
3:52 PM 79.2 °F 50.9 °F 37% 29.95 in 10.0 mi North 16.1 mph 23.0 mph N/A   Scattered Clouds
4:11 PM 80.1 °F 51.3 °F 37% 29.95 in 10.0 mi North 16.1 mph 24.2 mph N/A   Scattered Clouds
4:32 PM 79.2 °F 48.6 °F 34% 29.95 in 10.0 mi North 17.3 mph 23.0 mph N/A   Scattered Clouds
4:52 PM 79.0 °F 47.8 °F 33% 29.95 in 10.0 mi North 16.1 mph 24.2 mph N/A   Clear
5:11 PM 80.1 °F 50.4 °F 35% 29.95 in 10.0 mi North 13.8 mph 24.2 mph N/A   Scattered Clouds
5:32 PM 78.8 °F 50.2 °F 37% 29.95 in 10.0 mi North 15.0 mph 23.0 mph N/A   Scattered Clouds
5:51 PM 78.8 °F 47.7 °F 33% 29.95 in 10.0 mi NNE 16.1 mph 24.2 mph N/A   Clear
6:12 PM 78.1 °F 47.5 °F 34% 29.95 in 10.0 mi North 17.3 mph 20.7 mph N/A   Clear
6:31 PM 77.9 °F 49.1 °F 36% 29.95 in 10.0 mi North 16.1 mph 19.6 mph N/A   Clear
6:51 PM 77.4 °F 48.9 °F 37% 29.96 in 10.0 mi North 16.1 mph 21.9 mph N/A   Clear
7:12 PM 77.0 °F 49.5 °F 38% 29.97 in 10.0 mi North 13.8 mph 19.6 mph N/A   Clear
7:32 PM 77.0 °F 49.1 °F 37% 29.97 in 10.0 mi North 16.1 mph 20.7 mph N/A   Clear
7:52 PM 75.2 °F 51.3 °F 43% 29.98 in 10.0 mi NNE 12.7 mph 17.3 mph N/A   Clear
8:12 PM 73.4 °F 51.6 °F 46% 29.98 in 10.0 mi NNE 11.5 mph 16.1 mph N/A   Clear
8:31 PM 73.0 °F 52.0 °F 48% 29.98 in 10.0 mi NNE 8.1 mph - N/A   Clear
8:52 PM 70.9 °F 51.8 °F 51% 29.98 in 10.0 mi NE 8.1 mph - N/A   Clear
9:12 PM 70.0 °F 50.0 °F 49% 29.98 in 10.0 mi NE 8.1 mph - N/A   Clear
9:31 PM 68.4 °F 49.3 °F 50% 29.99 in 10.0 mi NNE 6.9 mph - N/A   Scattered Clouds
9:51 PM 67.3 °F 49.1 °F 52% 30.00 in 10.0 mi NNE 5.8 mph - N/A   Scattered Clouds
10:12 PM 66.0 °F 49.8 °F 56% 30.01 in 10.0 mi NNE 5.8 mph - N/A   Clear
10:31 PM 64.6 °F 49.6 °F 58% 30.01 in 10.0 mi NNE 5.8 mph - N/A   Mostly Cloudy
10:51 PM 63.5 °F 49.8 °F 61% 30.02 in 10.0 mi North 6.9 mph - N/A   Overcast
11:11 PM 63.1 °F 49.6 °F 61% 30.02 in 10.0 mi NNE 5.8 mph - N/A   Overcast
11:31 PM 63.0 °F 50.7 °F 64% 30.03 in 10.0 mi NNE 5.8 mph - N/A   Overcast
11:52 PM 61.7 °F 50.0 °F 65% 30.03 in 10.0 mi NNE 5.8 mph - N/A   Overcast